Temp
12 12 12 12 12 12 12 12 12 12 13 13 13 13 13 12 12 13 12 12 12 12 11 11 10 10 9 9 9 9 9 9 8 8 8 7 7 7
12 12 12 12 12 12 12 13 12 12 10 12 13 13 13 13 12 12 12 12 12 11 11 11 10 10 9 9 9 9 9 8 8 8 8 8 8 7
12 12 12 12 14 12 11 12 13 13 10 12 13 12 12 12 12 11 12 12 11 11 11 11 11 10 10 9 9 9 9 9 8 8 8 8 8 8
12 12 12 12 12 12 11 11 12 12 11 11 12 12 11 11 12 11 11 11 11 11 10 10 10 10 10 10 9 9 8 8 8 8 8 8 8 8
11 11 11 11 11 11 11 11 11 11 11 11 12 12 11 11 11 11 11 10 11 11 11 10 10 10 10 9 9 9 8 8 8 8 8 8 8 8
10 10 10 10 11 11 11 11 11 11 11 11 11 11 12 11 10 10 10 10 10 11 11 10 10 9 9 9 9 9 8 8 8 8 8 8 7 7
8 8 8 9 9 10 10 10 10 10 10 11 11 11 11 11 11 10 10 10 10 10 11 10 9 9 9 9 9 9 9 8 8 8 7 7 7 7
7 6 6 6 7 7 8 8 9 9 10 10 10 10 10 10 10 11 10 9 9 10 10 10 9 9 9 9 10 9 9 8 8 8 7 7 7 7
4 4 5 5 6 6 6 6 6 7 8 8 9 8 9 9 9 9 9 9 8 8 9 9 9 9 9 9 10 9 9 8 7 8 8 8 8 8
1 2 2 2 3 4 4 4 5 4 5 5 6 6 7 8 7 8 8 8 8 8 9 8 9 8 8 8 9 8 9 8 8 8 8 8 7 7
-0 -0 0 1 1 1 2 2 2 2 2 2 3 3 4 5 4 7 6 7 7 7 8 8 8 8 8 8 7 7 7 8 8 8 7 7 8 7
-1 -1 -1 -1 -1 0 1 1 1 1 1 1 0 1 1 2 2 4 4 4 5 5 6 7 8 8 6 6 6 6 6 7 7 7 7 7 7 7
-2 -2 -3 -3 -3 -2 -2 -2 -2 -2 -1 -1 -1 -1 -1 -0 0 1 1 2 3 2 3 4 4 5 5 5 3 3 3 3 4 5 5 4 4 4
-6 -6 -5 -5 -4 -4 -4 -4 -3 -3 -3 -2 -2 -2 -1 -2 -2 -2 -1 -1 -0 1 1 2 2 2 2 2 2 0 -2 -1 -1 0 -0 -1 -1 -1
-9 -9 -8 -8 -6 -5 -5 -5 -5 -4 -4 -3 -4 -4 -4 -4 -4 -3 -3 -2 -2 -1 -0 -0 -0 -1 -0 0 0 -1 -3 -5 -5 -4 -3 -3 -3 -3
-10 -10 -9 -9 -8 -7 -6 -6 -6 -7 -7 -6 -6 -6 -6 -5 -4 -4 -3 -3 -3 -2 -3 -2 -2 -2 -2 -2 -2 -2 -4 -4 -6 -5 -4 -4 -4 -4
-11 -10 -9 -9 -9 -9 -9 -8 -8 -8 -7 -8 -8 -7 -7 -6 -6 -6 -5 -5 -5 -5 -5 -4 -4 -4 -3 -4 -4 -5 -6 -6 -6 -7 -7 -7 -7 -7
-11 -12 -12 -12 -12 -12 -12 -11 -11 -11 -11 -10 -10 -9 -9 -8 -8 -7 -7 -7 -7 -7 -7 -7 -7 -6 -6 -7 -7 -7 -8 -7 -8 -8 -8 -8 -8 -8
-13 -14 -14 -14 -14 -14 -13 -13 -13 -13 -12 -12 -12 -11 -11 -10 -9 -9 -9 -8 -8 -8 -8 -8 -7 -7 -7 -9 -10 -9 -8 -9 -9 -9 -9 -9 -9 -9
-15 -16 -16 -16 -16 -15 -15 -15 -14 -14 -13 -13 -13 -12 -12 -12 -11 -11 -11 -10 -9 -9 -9 -8 -8 -8 -7 -8 -10 -10 -10 -10 -10 -10 -10 -10 -10 -10
-17 -17 -18 -17 -17 -17 -16 -16 -16 -15 -15 -14 -13 -13 -13 -13 -12 -12 -11 -11 -11 -10 -10 -9 -9 -9 -9 -9 -9 -10 -10 -10 -10 -10 -10 -10 -10 -10
-18 -18 -18 -18 -18 -18 -18 -17 -17 -16 -15 -15 -14 -14 -14 -13 -13 -13 -12 -12 -12 -12 -11 -11 -11 -11 -10 -10 -10 -10 -11 -11 -11 -11 -11 -11 -11 -11
-18 -18 -19 -19 -19 -19 -18 -18 -18 -18 -17 -16 -16 -15 -15 -14 -14 -14 -13 -13 -12 -12 -12 -12 -12 -11 -11 -11 -11 -11 -12 -12 -12 -11 -11 -11 -11 -11
Height
1455 1458 1460 1462 1467 1471 1474 1476 1479 1481 1479 1478 1479 1479 1479 1478 1480 1482 1483 1483 1484 1485 1487 1489 1492 1494 1497 1501 1504 1507 1510 1513 1515 1518 1521 1523 1526 1528
1449 1452 1454 1456 1460 1464 1466 1465 1471 1469 1468 1470 1473 1475 1474 1472 1472 1474 1476 1477 1477 1477 1478 1480 1482 1484 1487 1491 1494 1498 1502 1505 1508 1511 1514 1516 1519 1521
1443 1446 1448 1450 1452 1456 1458 1461 1461 1460 1461 1461 1466 1463 1465 1462 1463 1465 1468 1468 1469 1469 1470 1470 1471 1473 1476 1480 1483 1488 1492 1496 1499 1502 1505 1508 1511 1514
1437 1441 1444 1444 1447 1449 1450 1450 1452 1453 1456 1456 1458 1458 1457 1457 1455 1456 1457 1458 1458 1459 1460 1461 1462 1463 1465 1468 1471 1476 1481 1486 1489 1492 1496 1500 1503 1506
1430 1432 1434 1436 1438 1439 1442 1443 1446 1448 1449 1452 1449 1448 1447 1448 1449 1447 1448 1448 1449 1449 1449 1449 1451 1452 1454 1457 1460 1463 1468 1474 1479 1482 1486 1490 1493 1497
1424 1427 1428 1429 1432 1434 1434 1437 1438 1438 1441 1441 1441 1439 1438 1438 1440 1438 1438 1437 1438 1439 1439 1438 1440 1442 1443 1445 1448 1450 1454 1460 1466 1472 1476 1480 1484 1487
1420 1423 1423 1425 1425 1427 1428 1429 1430 1431 1430 1431 1430 1428 1428 1429 1427 1428 1428 1429 1429 1429 1429 1430 1430 1431 1433 1435 1437 1440 1442 1446 1453 1459 1464 1469 1473 1476
1417 1418 1420 1422 1422 1421 1421 1422 1422 1422 1421 1420 1420 1418 1417 1411 1417 1419 1421 1421 1419 1420 1420 1420 1420 1421 1421 1424 1426 1428 1431 1435 1440 1446 1451 1456 1461 1465
1417 1416 1418 1419 1421 1420 1417 1416 1415 1415 1413 1414 1411 1413 1410 1410 1409 1412 1413 1413 1411 1410 1411 1410 1412 1411 1412 1413 1415 1417 1421 1425 1429 1435 1440 1445 1449 1453
1420 1418 1418 1417 1418 1418 1416 1412 1410 1410 1407 1406 1405 1405 1406 1402 1402 1402 1405 1403 1403 1401 1401 1400 1402 1403 1404 1404 1405 1407 1409 1414 1419 1423 1428 1432 1437 1440
1424 1422 1417 1417 1418 1416 1412 1409 1406 1405 1404 1401 1400 1399 1398 1396 1396 1394 1396 1395 1391 1392 1390 1391 1393 1393 1396 1394 1396 1398 1400 1403 1406 1411 1416 1420 1423 1427
1428 1422 1418 1418 1419 1413 1410 1408 1408 1404 1404 1400 1399 1397 1397 1392 1390 1386 1386 1385 1384 1382 1383 1381 1381 1384 1385 1384 1386 1390 1392 1394 1396 1400 1403 1407 1411 1415
1429 1425 1421 1419 1418 1413 1411 1409 1408 1406 1402 1402 1397 1396 1396 1391 1387 1382 1381 1379 1377 1375 1375 1374 1372 1374 1375 1374 1377 1379 1384 1386 1388 1391 1394 1397 1401 1404
1431 1425 1422 1420 1416 1415 1411 1410 1408 1405 1404 1402 1400 1396 1392 1390 1388 1382 1378 1376 1374 1370 1370 1367 1367 1369 1368 1367 1368 1371 1378 1380 1382 1385 1388 1392 1397 1401
1432 1430 1426 1422 1418 1414 1413 1411 1409 1407 1406 1401 1398 1395 1393 1391 1388 1382 1379 1377 1374 1370 1367 1364 1363 1364 1365 1367 1367 1366 1370 1377 1379 1382 1386 1390 1394 1398
1434 1431 1425 1422 1416 1414 1414 1413 1411 1409 1404 1399 1397 1397 1395 1393 1389 1383 1379 1377 1376 1370 1365 1362 1362 1362 1362 1364 1363 1367 1368 1374 1379 1381 1385 1388 1392 1396
1434 1428 1422 1420 1418 1416 1415 1414 1412 1407 1404 1401 1401 1399 1397 1393 1388 1384 1380 1378 1375 1369 1367 1362 1363 1361 1360 1361 1364 1369 1371 1375 1378 1382 1385 1387 1390 1393
1430 1428 1426 1425 1421 1419 1417 1415 1413 1409 1406 1403 1402 1399 1396 1393 1389 1384 1381 1379 1376 1373 1371 1368 1367 1366 1364 1365 1368 1371 1375 1376 1379 1382 1385 1390 1393 1394
1434 1431 1429 1427 1425 1423 1420 1416 1412 1410 1408 1404 1401 1399 1396 1393 1389 1385 1380 1379 1377 1376 1373 1372 1370 1369 1368 1368 1374 1375 1378 1380 1381 1383 1388 1390 1393 1396
1434 1432 1429 1426 1424 1421 1418 1415 1411 1409 1407 1404 1400 1398 1395 1391 1388 1384 1381 1379 1378 1378 1376 1374 1374 1373 1372 1372 1374 1378 1381 1383 1385 1386 1389 1391 1395 1399
1433 1430 1427 1423 1421 1418 1415 1413 1410 1407 1404 1401 1399 1396 1393 1389 1386 1384 1383 1381 1380 1378 1377 1375 1374 1375 1374 1376 1377 1379 1382 1385 1387 1390 1392 1393 1395 1398
1430 1428 1424 1421 1418 1416 1412 1409 1406 1404 1401 1399 1397 1395 1391 1388 1386 1384 1384 1382 1381 1381 1378 1376 1376 1376 1377 1377 1379 1381 1383 1386 1388 1391 1393 1394 1396 1397
1428 1425 1421 1418 1415 1411 1409 1406 1403 1400 1398 1396 1394 1392 1390 1388 1387 1385 1384 1384 1382 1382 1380 1379 1378 1378 1379 1380 1380 1382 1384 1387 1389 1390 1391 1393 1395 1397
Wind_Speed
34 34 33 31 28 25 27 28 28 27 33 35 33 31 29 27 25 21 20 19 20 25 29 30 38 42 42 41 40 38 37 34 33 33 30 29 30 31
33 34 34 33 31 29 29 25 23 20 26 32 31 28 25 24 24 24 25 21 20 23 27 32 35 39 43 43 44 42 41 40 36 35 34 33 32 30
26 28 31 31 26 26 25 35 33 29 36 35 33 28 31 27 27 28 27 25 26 25 28 31 34 38 44 46 45 45 46 44 42 38 36 36 34 34
25 28 27 27 31 33 32 30 30 29 36 39 39 34 31 28 26 28 32 29 30 31 31 31 33 36 39 47 49 48 48 47 45 42 40 39 40 38
16 13 19 17 21 25 29 31 33 31 27 34 41 40 36 29 31 30 36 35 32 27 30 32 36 36 39 40 46 52 50 50 48 46 42 41 41 42
11 14 13 18 19 22 23 27 26 30 36 34 37 36 37 34 36 34 40 38 32 29 28 32 32 32 34 38 40 47 55 53 52 49 45 44 41 41
4 6 9 14 18 25 30 29 36 36 31 33 38 31 31 41 35 37 39 36 37 31 30 31 31 31 32 34 35 39 48 57 54 53 48 47 45 44
4 5 7 10 12 17 23 27 28 27 29 31 30 34 45 40 41 34 32 31 33 30 33 33 31 33 31 32 33 35 38 53 55 55 50 48 48 47
13 11 9 9 11 12 14 15 19 24 29 32 30 28 18 22 28 31 34 37 38 34 33 33 32 34 33 32 33 35 41 47 48 52 51 50 50 46
18 17 16 15 12 9 11 11 12 14 15 17 20 18 25 24 21 26 32 33 37 37 34 36 30 31 31 33 33 39 45 48 49 50 52 51 51 50
20 19 19 18 17 16 15 13 12 11 12 13 15 17 20 22 24 29 31 34 35 34 40 37 35 35 34 34 36 39 46 48 50 52 53 51 51 45
18 18 19 20 20 18 17 17 15 15 13 11 11 12 14 15 16 18 20 25 29 29 30 38 41 39 35 34 35 37 39 41 41 40 41 44 42 44
19 18 19 19 20 20 19 18 17 16 15 13 12 11 11 11 10 9 12 14 17 21 19 25 34 37 36 21 31 32 32 30 31 34 35 33 32 31
19 19 18 17 16 17 16 16 14 13 12 11 11 11 11 11 11 10 8 9 11 12 17 20 24 28 34 26 23 30 29 28 26 26 25 26 26 27
16 16 14 15 14 14 14 13 12 12 11 12 13 14 14 13 13 10 9 9 8 8 9 12 16 20 22 29 24 23 30 25 23 21 22 23 25 26
15 15 13 12 13 13 11 12 13 13 13 13 13 12 10 9 10 10 9 6 7 6 4 4 6 8 13 17 18 22 24 21 21 18 16 15 16 16
12 15 15 14 13 13 13 13 12 11 10 11 10 9 9 9 8 9 9 8 8 10 10 9 6 0 6 7 11 18 21 17 16 18 17 17 16 15
15 15 14 14 14 15 15 14 12 10 10 10 10 9 9 9 7 6 6 6 7 9 9 10 9 7 10 12 8 14 14 13 15 15 15 17 17 16
12 13 14 15 14 13 11 11 12 10 8 8 9 8 8 8 7 7 5 3 4 5 6 5 5 3 9 15 14 10 12 14 16 15 13 14 17 16
12 12 16 16 15 14 11 9 9 7 7 7 6 6 7 8 7 5 5 4 3 2 2 3 4 5 7 14 15 13 10 13 14 16 15 14 13 11
16 15 14 18 17 16 13 11 10 9 8 7 6 5 6 7 6 4 3 3 5 6 1 5 7 5 5 8 15 15 13 11 10 12 14 13 14 12
22 19 16 18 19 20 16 14 13 12 9 7 5 3 5 6 5 4 2 3 5 7 7 7 6 6 6 8 12 14 14 12 9 8 8 10 11 9
25 27 22 19 20 20 17 14 13 13 11 8 5 3 2 4 4 4 3 2 3 4 6 3 3 5 7 7 8 9 9 9 8 8 8 10 9 8
Wind_Direction
227 227 231 233 234 235 239 243 251 256 257 250 247 252 267 263 257 253 267 256 257 250 246 245 241 241 240 240 238 239 236 237 236 238 237 242 239 238
232 235 236 239 243 240 235 237 250 289 282 270 264 266 261 260 256 250 264 259 262 254 251 248 248 246 245 241 242 238 239 237 237 237 236 238 244 243
241 242 249 244 241 238 246 258 267 273 256 265 266 262 260 253 252 250 256 263 268 269 258 259 251 247 245 242 239 237 237 237 236 236 237 238 240 245
230 244 254 256 253 257 260 245 261 274 263 262 266 269 273 271 262 256 256 259 266 270 258 255 251 249 246 244 242 236 237 238 237 235 239 241 241 242
230 233 233 243 244 242 245 261 269 269 266 259 270 273 274 269 259 264 258 259 265 263 270 265 250 248 246 248 245 239 233 237 238 237 239 242 242 242
223 239 245 246 247 251 254 258 263 264 267 270 276 266 265 271 269 260 266 262 261 265 271 268 260 249 247 246 243 246 235 233 235 239 239 240 243 243
281 264 262 264 265 262 272 268 262 267 267 269 270 263 252 255 251 258 268 264 268 268 270 267 266 259 251 244 244 246 244 232 232 235 235 239 243 246
3 339 326 313 300 286 278 273 272 272 271 269 274 277 264 241 262 257 263 263 264 267 262 264 266 256 255 253 251 245 246 240 231 232 233 237 242 244
34 27 13 351 323 315 309 303 293 288 277 272 271 271 259 247 252 263 268 266 268 270 270 268 264 259 255 257 257 257 249 241 234 233 232 237 240 241
38 35 29 24 16 350 327 318 310 301 296 291 281 274 267 258 251 245 248 254 262 264 263 261 261 257 260 259 260 259 243 235 233 234 231 234 240 242
38 34 32 27 25 17 8 360 343 332 328 321 309 302 293 278 283 261 263 257 251 256 253 257 261 253 254 254 249 248 241 233 230 230 234 236 242 247
29 28 29 25 17 17 13 10 4 9 353 337 328 319 308 302 297 285 279 269 263 259 246 233 246 246 238 238 239 240 240 239 240 239 238 238 239 242
18 21 21 17 12 14 12 12 13 6 0 355 350 341 330 325 312 307 296 285 277 260 251 243 236 232 227 220 225 228 231 232 233 236 240 241 241 239
13 13 10 5 6 6 10 9 0 0 359 357 355 360 2 2 353 345 339 321 294 280 268 247 241 244 226 215 206 216 222 227 228 227 222 216 211 207
16 9 10 5 360 3 8 1 358 359 2 4 9 7 3 357 351 350 350 336 317 293 276 262 249 245 241 239 231 214 209 209 213 213 209 207 208 207
6 358 5 1 4 360 354 358 359 1 7 9 10 3 353 345 348 2 4 348 344 2 3 286 264 239 240 236 237 226 213 201 202 203 206 204 203 206
350 344 349 350 352 353 351 350 353 351 355 0 357 355 357 358 4 11 17 29 38 43 41 49 49 235 205 206 197 201 196 197 191 191 191 187 185 189
339 355 355 352 349 351 350 349 352 354 354 353 350 347 353 356 5 19 24 34 48 52 53 59 65 86 112 115 142 173 180 180 176 180 181 182 176 177
340 350 352 350 345 341 350 356 356 1 345 355 355 355 356 344 352 7 31 32 40 51 52 44 49 59 127 113 130 145 166 164 164 162 170 180 172 174
0 350 344 344 341 335 334 337 347 348 351 340 352 3 356 4 9 24 16 17 29 23 66 67 78 96 133 138 140 136 156 164 166 159 160 162 158 160
351 349 341 332 336 332 317 317 308 319 325 330 335 10 11 360 8 22 26 37 346 354 86 106 106 117 143 148 150 144 147 155 167 174 172 161 159 163
346 342 331 323 329 330 319 309 307 306 305 305 332 325 35 26 360 351 8 48 45 54 91 107 113 114 115 163 164 161 157 159 165 169 181 193 190 196
345 345 338 327 321 322 322 322 311 310 314 289 295 312 301 354 328 322 313 209 155 122 107 101 110 135 127 134 162 160 157 154 162 174 182 193 200 206